Location: Lafig�re
(44.4503°N, 4.0357°E)
Time: 15:07:07
(UTC+00:00)

Transit 2A Rocket - Pass Details

Date: 26 January 2021
Orbit: 594 x 908 km, 66.7° (Epoch: 06 March)

Event Time Altitude Azimuth Distance (km) Brightness Sun altitude
Rises 12:55:21 0° 251° (WSW) 3,286 8.7 25.6°
Reaches altitude 10° 12:58:23 10° 267° (W) 2,299 7.8 25.4°
Maximum altitude 13:02:22 22° 317° (NW) 1,576 6.5 25.2°
Drops below altitude 10° 13:06:08 10° 7° (N) 2,148 6.9 25.0°
Sets 13:08:52 0° 24° (NNE) 3,011 7.5 24.8°
